Location: Waco, TX
(31.5480°N, 97.1670°W)
Time: 06:19:54
(UTC-05:00)

ISS - Pass Details

Date: 29 September 2022
Orbit: 414 x 417 km, 51.6° (Epoch: 01 October)

Event Time Altitude Azimuth Distance (km) Brightness Sun altitude
Rises 21:19:08 0° 333° (NNW) 2,358 0.6 -26.9°
Enters shadow 21:21:05 - 348° (NNW) 1,735 -0.3 -27.3°
Reaches altitude 10° 21:22:03 10° 0° (N) 1,492 - -27.5°
Maximum altitude 21:23:51 14° 33° (NNE) 1,281 - -27.8°
Drops below altitude 10° 21:25:40 10° 66° (ENE) 1,489 - -28.2°
Sets 21:28:34 0° 94° (E) 2,349 - -28.8°
